GFSGL_2pvu_pres_132.txt.gz
Presure
267 299 274 267 282 290 317 319 296 287 223 306 227 314 319 340 347 204 249 239 212 186 192 177 172 170 194 182 181 168 156 169 176 171 189 178 178 187 181 181 184 182 184
292 277 266 271 267 275 276 279 301 299 282 289 311 304 312 321 347 351 294 195 192 209 194 191 168 186 181 175 167 191 192 183 181 183 174 192 184 189 198 179 160 207 187
266 258 257 265 258 258 259 267 270 276 276 289 297 292 293 308 330 341 198 195 183 217 196 196 188 184 194 181 190 167 163 162 167 189 166 187 185 178 186 199 180 175 188
258 263 258 249 253 250 260 261 260 261 260 266 275 290 297 297 312 329 300 278 286 220 191 249 227 227 205 200 202 187 198 193 186 174 187 187 186 180 194 185 164 197 173
249 242 256 255 245 249 258 243 251 259 261 268 266 263 276 282 291 301 325 272 293 276 210 263 213 256 188 218 214 171 170 175 197 186 175 185 185 173 176 189 192 185 204
259 253 240 245 241 237 242 244 249 254 252 251 248 238 257 262 264 286 302 308 330 367 322 290 287 282 264 202 237 241 218 230 255 186 170 191 188 185 190 196 180 212 166
239 249 247 232 237 245 241 241 240 236 238 240 239 235 248 253 254 240 242 287 291 312 391 463 462 307 282 286 271 264 262 259 255 251 230 190 200 187 187 188 197 198 202
240 233 234 237 230 226 239 231 232 238 229 231 232 240 244 241 247 241 249 258 268 317 351 390 450 439 385 339 313 274 274 288 288 276 236 222 207 203 192 195 186 180 185
234 234 225 223 227 234 229 228 218 228 228 232 231 239 229 230 231 231 242 249 244 265 303 303 315 382 379 334 328 328 332 284 277 268 264 243 202 209 194 209 188 225 207
231 233 235 218 220 231 228 226 221 224 222 224 226 231 229 226 237 248 236 225 246 247 272 273 278 291 326 311 311 334 308 323 347 317 307 284 206 209 189 201 178 220 197
222 227 236 235 232 225 225 221 221 220 220 226 232 224 224 229 232 235 244 233 238 244 245 272 267 265 267 284 281 298 334 352 354 315 280 281 256 212 203 199 200 180 189
231 221 228 227 229 240 241 221 222 226 230 221 220 234 228 222 227 228 231 240 228 239 238 261 252 251 253 258 278 266 285 312 316 293 287 277 246 263 204 203 205 202 184
226 227 228 227 227 218 235 229 224 227 215 213 216 215 224 234 237 225 227 228 234 228 225 242 241 244 255 238 257 252 262 270 290 282 275 260 258 256 265 235 203 223 209
236 235 234 230 224 226 225 226 230 229 227 228 225 228 231 232 223 233 232 230 233 237 227 231 221 237 240 245 241 255 247 257 268 275 265 259 265 242 250 234 234 213 203
230 229 227 237 232 239 225 229 238 244 233 211 225 229 226 222 226 231 237 237 233 232 238 228 234 228 241 245 250 241 245 255 252 264 259 249 253 240 249 227 225 237 229
229 227 235 238 240 229 232 232 233 228 236 237 244 247 241 245 219 233 219 229 237 241 234 236 243 243 233 247 239 249 244 246 247 260 256 260 212 238 224 238 217 217 217
240 241 246 254 253 252 257 253 247 243 250 254 255 266 286 315 310 300 300 347 251 241 242 251 239 236 249 243 246 248 248 245 243 253 264 245 247 242 224 232 235 231 218
254 251 248 257 250 250 250 252 251 261 285 281 265 291 289 295 291 289 313 333 340 299 256 251 250 253 257 249 248 248 254 250 241 252 258 246 244 244 240 226 243 229 234
244 244 248 249 243 254 259 270 276 278 274 273 277 285 280 277 280 316 312 330 335 330 338 338 321 262 250 245 264 249 260 250 252 243 247 249 240 246 247 247 243 238 238
246 249 251 252 256 265 253 268 269 277 259 277 273 281 269 276 302 310 319 322 340 336 334 337 343 345 346 320 259 246 267 266 272 248 257 246 240 251 232 244 250 239 237
258 252 254 257 248 265 264 273 276 268 265 282 271 281 275 288 297 314 311 333 330 324 328 336 342 340 348 350 344 358 373 271 268 277 262 276 250 260 254 250 236 236 239
262 259 246 259 258 265 275 265 269 263 280 264 278 276 279 293 310 316 331 329 319 322 332 336 329 350 345 341 344 349 344 357 360 310 292 286 265 256 239 261 265 264 258
253 256 258 266 269 261 267 266 264 279 272 276 274 279 297 313 315 337 325 311 324 344 346 333 326 320 321 324 326 328 330 335 341 345 345 348 350 324 293 297 301 297 288
253 252 259 257 261 265 265 267 272 269 271 282 287 304 314 310 342 319 310 359 337 324 317 307 300 296 293 293 293 294 295 297 301 307 311 316 321 325 330 336 342 346 341
262 271 269 264 264 269 266 266 268 280 283 290 310 314 318 335 310 357 328 316 315 309 296 283 281 281 284 291 294 296 298 300 300 303 302 305 307 308 309 312 317 320 322
269 269 265 270 266 263 275 277 278 280 296 309 313 329 319 326 336 314 309 307 299 284 288 292 294 294 291 291 296 361 370 449 443 440 437 468 517 517 531 551 559 560 557

GFSGL_2pvu_pres_135.txt.gz
Presure
158 272 267 267 277 277 268 267 288 311 303 284 296 306 300 305 309 131 297 328 337 348 249 201 199 184 193 197 185 199 183 184 153 173 159 183 158 205 186 193 156 186 175
266 265 277 276 277 268 267 269 267 284 279 286 294 290 298 303 302 309 143 167 327 353 241 224 215 203 200 198 191 171 184 191 188 184 175 168 156 178 176 168 191 153 173
367 285 271 268 256 255 254 256 262 257 270 277 278 290 292 289 289 299 308 316 320 351 380 216 198 200 196 178 182 196 179 201 204 201 164 197 207 177 185 165 195 161 174
265 264 254 249 243 251 252 253 251 249 256 254 273 273 272 274 282 293 299 304 310 328 351 237 219 186 209 198 187 196 188 201 202 187 188 184 191 208 188 178 187 177 184
261 251 243 247 249 245 246 245 242 251 255 256 256 252 258 255 264 269 281 294 304 311 326 333 214 228 197 211 195 198 196 197 193 197 188 183 190 168 205 195 164 162 181
258 251 245 232 243 251 237 250 238 251 240 248 242 241 250 255 243 250 265 270 287 298 310 317 217 231 196 212 204 194 188 186 186 195 197 196 183 171 182 190 189 187 196
245 242 249 244 232 236 240 243 244 239 241 239 247 258 244 234 241 249 257 260 271 277 297 310 308 228 227 201 191 198 201 194 186 194 188 187 185 176 186 179 179 186 174
241 244 246 242 246 235 228 243 240 237 233 234 237 241 241 244 245 251 246 233 251 266 275 280 299 307 376 220 214 180 199 192 194 180 195 194 187 190 186 193 166 189 172
236 238 236 235 232 235 232 225 239 225 227 228 228 236 227 238 242 238 224 235 254 251 239 269 278 287 315 341 366 404 222 226 220 194 184 191 195 185 198 198 187 197 211
237 233 225 229 227 227 226 226 227 225 230 227 226 230 228 229 235 233 235 241 242 242 249 251 262 276 265 298 318 369 376 401 408 321 234 232 232 252 238 212 214 192 202
232 244 233 220 226 221 223 222 223 226 229 230 224 226 226 226 228 233 236 232 238 237 242 247 242 252 244 261 291 294 319 337 344 348 351 323 288 281 282 283 230 225 223
234 230 226 227 220 222 235 229 226 227 225 227 226 227 227 225 224 226 228 233 230 229 234 238 243 250 248 254 256 264 283 288 302 301 304 303 315 334 329 317 336 317 270
233 232 230 228 228 230 225 232 229 234 227 235 224 224 227 224 223 216 218 218 226 235 230 228 231 231 234 246 244 241 265 256 269 276 286 291 307 328 357 354 308 330 312
235 233 233 232 227 228 227 224 226 223 223 227 234 237 227 226 227 227 226 223 219 228 224 229 234 232 232 237 242 244 243 252 251 263 265 266 279 290 299 325 314 306 293
232 232 231 233 235 238 238 235 230 232 233 232 221 229 234 232 232 230 228 226 234 230 229 231 233 239 240 231 235 244 240 233 239 244 250 256 262 265 266 283 288 283 280
243 236 233 232 232 230 236 235 239 237 235 239 240 242 239 253 245 232 246 257 267 262 249 299 248 244 246 248 248 239 245 241 245 240 240 250 255 255 264 255 270 271 278
240 237 240 242 251 248 248 240 249 251 243 239 247 248 252 258 259 291 283 282 295 304 298 304 324 348 354 270 254 243 251 246 247 247 244 240 246 254 252 259 259 260 272
236 237 250 248 249 249 253 256 243 257 249 255 266 278 278 282 277 291 269 287 286 297 290 274 259 344 352 360 359 351 278 262 257 252 254 244 249 248 243 250 250 262 260
244 243 242 247 243 248 248 248 252 251 257 273 272 263 269 282 277 282 288 286 285 291 290 316 339 341 360 354 351 354 356 362 276 255 256 263 250 254 250 249 255 249 249
245 242 248 250 251 253 250 257 257 268 263 258 268 264 276 271 280 287 286 278 285 293 330 333 334 364 347 339 335 335 339 348 350 357 337 273 264 259 265 253 257 253 258
249 247 253 252 254 253 253 264 260 257 268 263 272 267 266 275 283 284 276 290 296 327 328 330 357 338 324 360 352 350 345 343 343 337 350 353 359 295 280 241 272 249 258
261 256 253 260 263 261 263 260 268 262 264 262 265 275 274 278 275 286 288 297 321 325 338 343 331 356 345 334 328 328 328 330 331 333 335 338 343 348 354 357 318 283 273
270 269 263 261 256 256 260 266 267 263 266 278 276 276 283 277 290 281 300 313 327 336 336 342 345 324 322 325 325 323 319 314 311 312 313 318 322 326 333 338 345 352 357
260 262 261 257 258 258 260 257 265 270 276 267 279 283 284 283 283 298 322 325 313 335 345 326 315 319 322 323 317 307 301 299 298 299 300 304 307 312 319 325 331 337 344
267 269 267 267 268 268 269 274 279 277 275 280 285 281 280 290 294 324 307 338 318 336 313 313 320 318 307 295 297 300 303 310 313 314 313 315 313 313 313 315 316 319 323
278 277 275 275 276 274 274 275 274 275 281 279 280 281 292 306 317 320 319 350 315 310 316 315 310 309 319 316 303 305 374 450 440 430 426 424 424 427 461 511 509 541 541

GFSGL_2pvu_pres_138.txt.gz
Presure
284 283 278 279 272 293 273 266 266 274 269 282 289 284 299 308 301 298 301 252 101 116 182 326 139 340 231 225 195 198 198 192 183 201 177 160 188 156 144 175 175 182 126
280 275 272 269 297 277 271 262 255 251 255 267 279 286 300 293 313 304 303 303 312 315 317 330 346 141 351 211 224 204 189 164 190 198 169 191 172 182 188 191 193 170 165
271 270 264 292 273 267 258 253 240 252 248 258 253 273 295 288 279 279 285 294 298 299 309 316 325 331 341 255 218 205 203 195 196 187 190 194 160 187 179 191 176 181 165
317 279 273 269 267 248 250 249 253 250 247 257 253 259 267 268 272 276 279 280 284 301 301 312 313 256 337 357 211 214 179 203 193 199 178 185 187 179 190 184 188 167 174
285 271 271 258 251 244 240 240 250 243 248 257 251 250 252 253 257 258 263 272 274 280 282 292 311 321 361 367 225 198 213 206 195 207 202 182 201 198 170 197 179 166 170
267 253 257 243 245 241 245 251 241 241 252 241 241 250 243 242 236 243 251 252 252 260 267 280 291 312 325 347 340 304 275 211 210 179 211 183 186 204 185 178 195 202 185
253 253 244 239 238 235 242 249 231 239 234 241 241 243 244 230 226 238 241 253 244 249 251 262 276 292 303 326 318 311 262 222 215 196 193 201 180 182 206 200 194 183 194
249 249 247 241 247 227 231 228 244 236 230 238 228 236 233 232 247 235 227 238 234 245 245 248 254 267 277 288 308 279 237 222 216 205 193 203 194 194 191 185 181 213 195
250 240 235 232 238 228 229 229 233 235 236 235 225 232 231 232 238 240 231 232 243 228 234 243 257 256 264 267 266 271 268 224 222 201 200 192 204 190 182 192 197 198 185
239 237 240 238 227 230 229 233 232 228 230 234 229 228 230 227 233 225 228 238 226 227 250 246 222 253 243 257 252 285 269 287 231 200 201 192 185 201 202 200 210 208 187
241 237 228 230 225 230 222 223 227 228 225 226 226 225 227 230 226 230 220 219 234 237 238 229 224 246 248 256 257 271 271 276 272 242 210 206 202 194 189 203 196 193 203
242 239 232 225 222 229 228 218 216 220 222 221 221 225 227 227 228 226 227 228 229 225 233 236 238 238 250 245 252 252 261 270 278 286 292 219 214 204 204 206 204 194 195
247 236 234 225 228 225 230 226 229 229 225 225 223 233 227 223 223 225 227 221 226 226 228 230 231 235 240 239 240 252 254 253 266 273 275 283 283 229 217 219 203 209 203
239 234 236 232 228 230 229 229 229 229 230 232 234 227 231 231 228 227 228 233 240 237 227 231 231 229 230 233 237 245 243 249 248 260 261 266 274 281 281 300 304 308 240
247 238 234 238 231 234 237 236 235 234 231 234 236 236 236 239 237 234 236 238 240 233 237 241 241 242 239 239 242 240 242 244 252 255 253 257 261 267 275 279 282 295 293
250 243 244 237 235 229 228 231 232 235 241 237 238 242 242 241 248 249 252 251 260 265 276 293 301 305 315 290 291 308 255 262 258 251 252 256 257 258 260 266 270 275 276
241 249 245 237 236 234 244 249 248 246 246 245 239 251 250 243 264 258 256 287 279 284 283 299 298 300 306 302 304 318 329 350 347 382 266 263 253 255 261 259 261 262 263
249 247 242 244 241 243 244 244 233 233 245 252 252 246 256 255 260 265 274 287 276 274 280 280 287 293 294 295 299 312 359 360 370 386 387 381 381 276 264 257 254 258 262
254 252 250 247 246 243 248 256 257 248 241 244 252 261 258 256 266 279 269 272 268 270 278 282 290 284 294 293 316 352 354 371 367 363 356 358 359 331 364 306 272 264 256
253 258 255 248 249 263 250 251 256 254 257 261 252 263 264 271 264 273 274 275 272 288 288 286 290 294 296 313 351 339 362 352 361 350 349 342 343 348 352 358 364 306 274
266 264 257 260 251 255 258 254 253 256 257 259 270 261 268 263 268 268 273 271 289 283 292 288 296 298 311 345 326 360 355 350 353 345 335 335 337 343 343 346 348 351 366
276 275 275 274 271 271 266 263 262 263 262 254 255 269 261 266 264 272 275 283 284 287 291 294 303 309 341 340 342 335 346 334 324 325 329 332 331 331 333 338 343 347 349
265 262 269 269 262 265 265 264 267 265 266 265 263 266 267 273 273 273 285 284 283 289 294 307 328 333 338 323 352 332 315 319 331 331 336 337 338 340 340 335 335 336 340
272 262 259 260 269 271 269 268 260 263 268 267 275 269 269 274 282 280 288 284 290 301 315 333 320 342 309 340 310 335 328 334 336 335 337 333 332 329 309 308 309 313 314
268 265 259 255 259 264 269 283 278 273 274 278 279 282 282 285 285 285 288 298 306 332 323 337 318 341 301 331 326 334 326 326 319 314 329 448 446 442 434 433 435 436 438
273 271 266 265 280 282 281 277 268 271 288 288 288 284 287 285 287 300 311 329 317 332 323 326 339 317 322 330 322 311 302 368 448 440 430 422 417 416 417 435 461 513 512

GFSGL_2pvu_pres_141.txt.gz
Presure
293 295 291 285 283 279 281 269 263 262 264 257 264 271 277 281 281 300 199 237 265 303 305 305 194 309 357 139 315 226 208 202 196 167 190 204 189 180 183 196 188 184 189
364 354 279 280 278 270 291 267 265 255 248 245 271 267 277 287 286 305 295 292 293 296 299 259 222 302 141 134 336 174 224 213 193 211 197 176 203 191 193 188 171 190 178
325 321 316 270 267 277 269 259 248 251 238 252 244 251 273 284 285 284 286 288 292 305 304 299 314 304 305 307 330 338 142 210 231 203 199 189 192 188 165 182 187 183 177
294 302 292 268 275 266 260 248 245 233 250 245 245 246 253 255 259 261 271 275 278 279 283 302 307 311 312 212 349 348 343 350 251 206 196 197 199 180 191 197 193 182 192
280 286 277 269 263 250 247 241 232 240 241 257 240 238 263 247 252 250 251 262 259 263 266 270 280 294 309 301 309 318 342 348 355 225 207 196 189 189 190 188 198 190 199
280 277 270 265 249 251 239 236 246 242 242 245 250 227 247 234 257 237 252 253 253 249 245 254 261 271 280 293 294 306 324 314 341 362 272 215 195 188 191 187 183 179 176
269 272 262 249 251 242 235 236 233 231 228 230 229 239 239 234 228 227 230 240 242 240 250 251 250 254 261 278 288 289 299 342 344 341 296 233 225 197 196 189 179 192 186
269 262 253 248 243 237 236 238 237 237 236 235 226 226 228 228 229 237 238 228 228 239 237 236 243 247 253 254 266 276 292 295 325 341 358 284 229 205 202 185 189 184 188
260 248 251 244 239 234 234 234 235 226 227 233 233 230 231 227 226 224 233 232 229 228 230 227 231 241 248 245 255 260 255 282 296 316 332 309 283 241 195 204 197 186 189
256 251 234 247 244 244 234 236 230 235 229 228 224 236 223 233 221 219 214 224 227 221 227 229 234 227 233 244 238 252 256 266 265 297 303 326 258 247 231 208 188 188 183
262 239 234 235 234 235 236 227 231 225 228 229 231 229 231 234 233 228 229 230 227 233 223 231 225 222 228 235 230 249 237 257 256 269 275 288 258 260 266 215 207 203 199
258 241 238 232 227 236 234 231 223 222 222 217 219 228 217 216 218 221 226 228 230 229 228 224 215 225 237 229 221 236 241 247 241 261 262 270 278 267 248 254 216 204 203
241 255 239 232 231 226 225 224 224 217 219 228 226 226 224 225 218 225 226 231 225 219 229 226 217 232 229 222 229 241 221 235 244 247 256 260 266 269 281 270 245 231 230
248 238 238 236 243 236 229 230 226 225 226 225 226 228 226 227 230 230 231 240 222 232 231 227 225 229 235 239 234 229 229 239 236 234 250 248 262 268 276 263 261 240 233
250 250 246 239 237 234 231 234 232 230 228 226 228 228 229 235 237 239 238 241 241 240 240 239 241 241 241 244 246 242 248 249 248 248 250 254 260 258 262 272 275 277 238
254 251 253 243 231 238 238 237 236 238 235 234 233 232 236 238 238 241 245 251 252 252 256 263 259 267 290 295 297 304 306 304 310 305 317 260 261 261 269 272 265 274 285
274 260 248 240 248 251 247 241 238 241 243 240 240 240 241 243 246 249 239 253 254 252 260 275 279 292 289 291 292 290 295 311 310 323 325 334 346 358 398 286 274 276 280
275 278 264 253 245 246 245 249 251 249 244 243 248 252 248 247 254 255 260 261 261 273 262 280 277 279 277 278 287 291 306 305 313 316 321 336 385 389 392 395 396 400 400
275 282 277 266 260 261 253 246 245 247 247 242 241 253 256 265 253 250 254 256 262 271 265 280 270 278 273 283 289 298 301 302 308 315 333 371 355 382 378 375 375 375 373
279 275 292 275 268 263 256 255 262 259 255 259 250 248 254 262 255 260 259 264 267 264 270 266 270 276 281 283 295 300 300 305 317 327 361 341 363 351 369 362 362 360 359
279 275 279 274 289 272 268 264 264 262 260 258 260 264 263 260 271 269 268 263 266 272 275 269 274 286 285 293 295 302 305 320 338 352 346 347 330 363 356 351 350 350 356
279 269 269 275 276 273 266 279 285 282 278 276 277 273 268 267 266 269 268 268 266 270 280 280 285 293 300 300 306 312 328 349 340 352 332 367 343 321 334 347 346 346 346
282 271 270 275 274 270 268 268 267 264 261 260 257 262 268 270 275 278 278 275 287 282 284 294 300 306 301 309 325 347 339 350 337 368 344 319 343 345 348 345 343 344 348
272 279 274 271 280 274 265 261 263 266 268 267 261 255 259 264 271 299 299 298 289 288 297 302 299 310 342 342 330 316 329 365 339 330 341 346 335 321 317 320 449 442 438
276 271 266 266 266 266 262 265 263 259 262 268 267 266 269 278 300 298 294 291 296 298 303 314 340 333 352 336 333 354 335 346 328 349 324 308 434 456 440 432 425 423 424
288 279 273 269 270 271 270 272 277 281 292 291 287 289 289 293 292 289 295 302 308 328 332 323 340 327 356 326 349 348 328 336 312 310 388 431 418 411 406 407 406 450 506

GFSGL_2pvu_pres_144.txt.gz
Presure
312 300 350 345 344 285 286 287 275 271 269 261 261 264 267 269 278 278 284 282 297 297 295 204 149 306 310 306 234 259 188 148 179 134 158 160 198 187 192 173 183 175 181
294 307 332 319 317 275 282 268 270 255 260 251 252 244 254 257 289 279 286 303 300 286 284 290 293 126 137 263 132 180 123 200 204 171 206 176 192 202 181 189 181 164 180
281 331 311 300 281 267 288 265 256 255 260 246 240 249 246 254 259 263 268 276 277 277 292 309 298 296 303 285 152 121 319 337 177 236 196 183 195 185 199 185 157 165 170
280 310 300 291 274 267 260 254 250 246 244 229 251 240 245 241 247 248 258 257 261 269 270 277 288 303 298 293 212 129 309 129 132 281 207 180 206 189 189 193 184 177 185
312 294 299 277 273 267 262 257 242 237 233 241 245 235 240 248 249 244 250 244 247 250 254 255 260 270 279 289 291 230 286 132 280 261 339 198 204 220 209 182 195 189 171
310 286 267 273 266 263 259 242 238 230 233 236 235 236 242 240 237 234 240 249 246 247 264 255 254 256 262 268 284 286 280 301 124 327 349 326 222 202 226 202 201 190 190
301 276 278 272 262 261 249 249 237 229 239 238 232 240 228 232 234 228 229 228 239 246 245 248 247 242 249 254 255 267 280 301 290 300 324 324 340 346 296 217 199 199 186
284 266 272 261 266 257 254 241 229 229 230 228 230 226 227 231 229 231 231 236 237 236 233 241 244 244 248 253 251 252 255 262 283 296 291 299 321 318 341 299 211 202 212
282 267 262 261 254 250 248 232 239 237 227 238 223 234 226 223 223 234 225 231 226 224 229 230 229 230 233 238 248 249 252 255 252 272 285 293 304 344 315 324 317 210 198
288 268 264 251 240 240 242 238 232 237 230 224 225 219 228 227 222 223 220 217 218 227 231 233 229 220 229 232 237 233 250 243 247 242 252 275 284 294 315 346 299 292 219
285 267 260 253 243 246 234 239 238 238 242 226 226 230 231 225 223 229 221 236 232 228 231 227 227 224 229 224 225 226 232 232 246 243 242 248 258 281 290 320 280 271 279
284 276 259 254 249 234 236 234 229 235 234 229 222 218 224 224 224 225 227 233 216 219 227 226 228 229 229 222 222 228 232 233 228 236 246 246 254 250 267 297 302 260 258
253 284 261 240 255 239 236 234 239 223 239 230 225 226 226 230 226 230 230 226 223 227 221 223 222 226 225 219 227 229 227 217 231 235 228 240 244 249 256 264 283 267 247
276 271 265 266 250 232 236 238 228 227 227 227 226 226 223 224 228 228 227 230 231 229 230 231 229 226 224 238 229 222 238 220 233 233 233 238 234 248 248 256 264 265 279
249 278 275 259 255 242 247 235 234 228 227 230 229 228 230 228 228 227 226 226 229 238 240 241 244 246 243 243 246 251 246 245 247 245 243 252 240 243 247 250 252 261 269
239 246 260 282 262 252 248 247 240 239 237 238 238 231 234 235 234 235 236 238 240 247 248 246 247 254 255 264 255 257 291 287 294 311 298 314 324 312 264 260 259 264 265
247 239 249 251 266 274 258 252 251 235 229 234 237 240 241 242 242 241 241 239 255 249 252 261 251 263 280 266 266 277 279 289 284 294 301 302 313 320 329 344 354 357 278
244 241 249 251 250 259 285 266 254 252 251 248 246 247 248 249 249 249 252 254 246 237 251 258 253 262 272 267 266 278 281 282 287 289 294 301 307 314 330 333 340 351 363
254 255 256 258 260 263 261 271 287 271 260 252 250 251 251 249 246 251 251 250 250 255 262 261 266 261 269 280 281 276 273 278 288 294 301 302 310 324 326 338 339 364 384
276 273 270 268 267 267 272 269 276 287 282 275 269 263 261 265 262 262 263 266 261 264 267 265 270 285 278 275 278 277 287 293 300 309 315 315 323 328 332 366 366 365 376
305 312 304 294 287 279 274 266 276 278 275 286 288 272 274 270 268 270 270 265 274 283 291 285 285 275 280 266 279 287 310 310 298 306 323 323 365 357 357 345 328 353 390
306 295 303 301 299 291 283 274 276 276 270 274 276 277 275 275 274 271 271 270 270 270 264 268 271 273 272 281 297 313 315 312 315 341 355 346 355 368 387 374 356 359 359
378 297 290 288 286 288 290 283 278 272 268 269 272 273 273 272 272 269 266 266 268 268 270 272 278 282 293 304 310 307 319 347 343 338 346 341 352 337 331 361 353 348 357
366 358 291 283 282 278 275 275 276 274 276 274 273 269 269 273 273 270 267 269 270 279 295 298 304 304 304 310 327 340 334 337 328 351 345 356 349 360 353 342 332 324 349
351 354 323 286 278 276 274 271 270 271 271 271 270 271 272 274 275 277 284 299 298 299 302 306 311 316 330 333 330 330 318 330 346 357 348 351 338 320 338 442 435 425 420
323 325 322 310 300 288 281 278 276 276 277 278 281 285 290 297 299 295 296 301 308 309 308 322 323 327 328 322 316 320 335 351 345 343 328 313 369 437 429 417 409 403 410